Flag for Australia

Past Weather in Hobart, Tasmania, Australia — Yesterday and Last 2 Weeks

Now
61 °F

Partly sunny.


Feels Like: 61 °F
Forecast: 58 / 46 °F
Wind: 17 mph from North

Location: Hobart Airport
Current Time: Sep 30, 2020 at 4:23:21 pm
Latest Report: Sep 30, 2020 at 3:30 pm
Visibility: N/A
Pressure29.59 "Hg
Humidity: 55%
Dew Point: 45 °F
Location of HobartLocation

Past Weather in Hobart — Graph

°F

Hobart Temperature Yesterday

Maximum temperature yesterday: 63 °F (at 4:00 pm)
Minimum temperature yesterday: 41 °F (at 6:00 am)
Average temperature yesterday: 52 °F

High & Low Weather Summary for the Past Weeks

 TemperatureHumidityPressure
High70 °F (Sep 20, 12:30 pm)100% (Sep 25, 10:00 pm)30.54 "Hg (Sep 25, 10:00 pm)
Low36 °F (Sep 18, 5:30 am)30% (Sep 21, 2:00 pm)29.33 "Hg (Sep 22, 11:00 am)
Average52 °F67%29.89 "Hg
* Reported Sep 15 3:00 pm — Sep 30 3:30 pm, Hobart. Weather by CustomWeather, © 2020

Note: Actual official high and low records may vary slightly from our data, if they occured in-between our weather recording intervals... More about our weather records

Hobart Weather History for the Previous 24 Hours

Scroll right to see more
 ConditionsComfort  
Time TempWeatherWind HumidityBarometerVisibility
3:30 pm
Wed, Sep 30
61 °FPartly sunny.17 mph55%29.59 "HgN/A
3:00 pm63 °FBroken clouds.18 mph52%29.62 "HgN/A
2:30 pm63 °FBroken clouds.17 mph56%29.62 "HgN/A
2:00 pm63 °FPartly sunny.17 mph52%29.62 "HgN/A
1:30 pm63 °FPartly sunny.16 mph52%29.65 "HgN/A
1:00 pm63 °FPartly sunny.17 mph52%29.68 "HgN/A
12:30 pm63 °FPartly sunny.15 mph52%29.68 "HgN/A
12:11 pm63 °FBroken clouds.17 mph56%29.68 "HgN/A
11:30 am61 °FPartly sunny.16 mph59%29.71 "HgN/A
11:00 am59 °FPartly sunny.14 mph63%29.74 "HgN/A
10:30 am59 °FPartly sunny.12 mph63%29.77 "HgN/A
10:00 am57 °FPartly sunny.10 mph67%29.80 "HgN/A
9:30 am55 °FLight rain. Broken clouds.9 mph77%29.83 "HgN/A
9:00 am54 °FLight rain. Partly sunny.9 mph77%29.83 "HgN/A
8:30 am54 °FLight rain. Partly sunny.9 mph82%29.83 "HgN/A
8:00 am54 °FBroken clouds.8 mph77%29.83 "HgN/A
7:30 am54 °FLight rain. Mostly cloudy.10 mph72%29.86 "HgN/A
7:00 am54 °FLight rain. Mostly cloudy.13 mph72%29.86 "HgN/A
6:30 am54 °FMore clouds than sun.10 mph67%29.86 "HgN/A
6:00 am54 °FOvercast.12 mph67%29.86 "HgN/A
5:30 am54 °FOvercast.10 mph67%29.86 "HgN/A
5:00 am54 °FOvercast.10 mph67%29.86 "HgN/A
4:30 am52 °FOvercast.6 mph72%29.89 "HgN/A
4:00 am52 °FPassing clouds.6 mph67%29.89 "HgN/A
3:30 am50 °FClear.6 mph71%29.89 "HgN/A
3:00 am52 °FClear.12 mph67%29.92 "HgN/A
2:30 am52 °FPassing clouds.10 mph67%29.92 "HgN/A
2:00 am52 °FClear.10 mph67%29.95 "HgN/A
1:30 am52 °FClear.9 mph62%29.95 "HgN/A
1:00 am52 °FClear.8 mph62%29.95 "HgN/A
12:30 am52 °FClear.10 mph62%29.98 "HgN/A
12:00 am54 °FPassing clouds.13 mph58%29.98 "HgN/A
11:00 pm
Tue, Sep 29
52 °FClear.9 mph62%29.98 "Hg10 mi
10:30 pm54 °FClear.12 mph54%30.01 "Hg10 mi
10:00 pm54 °FClear.10 mph54%30.01 "Hg10 mi
9:30 pm54 °FClear.10 mph51%30.01 "Hg10 mi
9:00 pm54 °FClear.12 mph54%30.04 "Hg10 mi
8:30 pm55 °FClear.9 mph51%30.04 "Hg10 mi
8:00 pm55 °FClear.8 mph47%30.04 "Hg10 mi
7:30 pm54 °FClear.7 mph63%30.04 "Hg10 mi
7:00 pm55 °FClear.6 mph55%30.04 "Hg10 mi
6:30 pm55 °FClear.6 mph59%30.04 "Hg10 mi
6:00 pm57 °FPartly sunny.9 mph59%30.04 "HgN/A
5:30 pm57 °FPartly sunny.9 mph59%30.04 "HgN/A
5:00 pm61 °FPartly sunny.10 mph48%30.04 "HgN/A
4:30 pm63 °FPartly sunny.10 mph45%30.07 "HgN/A
4:00 pm63 °FPartly sunny.3 mph52%30.07 "HgN/A
Weather by CustomWeather, © 2020

See weather overview